Wind_Speed
17 17 18 18 19 19 19 19 20 21 22 23 23 23 23 23 23 23 23 22 21 20 19 19 18 18 17 17 16 16 16 17 18 16 15 12 10 9 8 8 9 9 8 9 9 10 11 12 12 12 12 12 11 11 11 10 10 10 10 10 11 12 13 14 15 15 15 14 14 15 18 21 22 23 25 26 27 29 30 30 31 31 32 32 33
17 17 18 18 18 18 18 19 19 19 20 22 23 24 25 25 25 25 24 23 23 22 21 20 19 19 19 18 18 17 17 18 19 17 15 13 11 9 8 9 9 9 9 8 9 10 11 12 12 12 13 12 12 12 11 11 11 10 10 10 10 11 12 14 15 16 17 17 16 16 18 21 24 25 26 27 29 30 31 31 32 33 34 34 35
18 19 19 18 17 17 17 17 17 17 17 19 21 23 25 27 27 26 25 25 24 23 23 22 21 21 20 20 20 19 18 18 19 18 17 15 12 10 9 9 10 10 9 9 10 11 12 13 13 14 14 14 14 13 13 12 12 12 12 11 11 12 13 15 17 18 19 20 20 19 18 20 23 25 27 28 29 31 32 33 33 34 35 36 37
20 20 19 18 17 16 15 15 15 15 15 16 18 21 23 26 27 27 26 26 25 24 24 24 23 22 21 21 21 20 19 19 20 20 18 16 14 11 9 9 10 10 10 11 12 14 15 15 15 15 16 17 16 15 15 14 14 14 14 14 14 15 16 17 19 20 22 23 24 24 23 23 25 26 27 28 30 31 32 33 34 35 36 37 38
20 20 19 18 17 15 14 13 12 12 13 14 16 18 20 22 24 25 26 26 25 25 25 25 24 23 22 22 22 22 22 21 22 21 19 17 15 13 11 10 10 11 12 12 14 16 16 16 17 17 18 18 18 17 16 15 15 16 17 18 18 19 20 20 21 22 23 25 26 27 28 28 29 29 30 30 30 32 33 33 34 34 36 38 39
20 20 20 18 16 15 13 12 11 11 10 11 12 14 15 17 18 20 21 22 22 23 23 24 23 23 23 23 24 24 24 23 23 22 21 18 16 14 12 12 12 13 13 13 16 17 17 17 18 18 19 20 19 18 16 15 16 17 18 20 21 22 23 24 24 24 25 26 27 28 29 30 31 32 33 32 32 31 32 33 34 35 37 39 40
21 20 20 18 16 15 13 12 11 11 10 9 8 8 9 10 12 13 14 14 14 15 17 19 20 21 23 24 25 25 25 24 23 23 22 20 18 16 15 14 14 14 14 15 17 17 17 18 19 19 18 20 21 19 17 17 18 19 20 21 23 25 26 27 28 27 27 28 28 29 29 30 31 33 34 34 33 33 33 34 35 37 39 40 41
21 20 20 18 16 15 14 14 13 12 11 9 7 5 5 6 7 8 9 11 11 12 13 14 16 17 20 22 24 26 25 24 24 24 23 22 20 18 17 16 16 16 15 16 18 18 18 18 20 20 18 19 22 21 20 21 21 22 23 24 26 28 29 29 30 31 31 30 30 30 29 30 32 33 34 35 35 35 35 35 36 38 39 41 42
21 21 20 17 15 15 16 16 14 13 12 10 8 7 6 6 7 7 8 9 10 11 12 13 13 13 16 20 23 25 24 23 23 24 24 24 22 21 20 18 18 18 16 16 17 19 19 19 21 20 19 21 23 23 22 22 23 24 27 29 30 32 32 32 32 32 33 33 32 31 31 31 33 33 34 35 36 36 36 37 38 39 40 41 43
20 19 17 14 14 16 18 17 16 15 13 12 12 10 9 9 9 8 8 9 9 10 11 12 13 13 14 16 19 21 21 22 24 25 25 26 25 23 22 20 20 19 17 16 17 18 19 21 22 21 22 25 26 24 22 22 23 26 29 32 34 36 36 35 34 33 33 33 33 32 32 32 33 34 35 36 36 37 38 38 40 40 42 42 43
19 17 15 14 16 18 19 18 17 16 15 15 15 13 13 13 12 11 10 10 11 10 10 9 11 13 15 16 17 18 18 20 24 26 27 28 28 26 24 23 21 20 18 17 17 18 20 23 24 25 27 29 28 25 23 24 26 29 32 34 37 38 39 38 35 32 32 33 33 32 32 33 34 34 35 36 37 38 39 40 41 43 44 44 43
19 17 16 17 19 19 19 19 18 17 17 17 18 17 17 17 16 14 13 14 14 12 10 10 11 12 14 16 16 17 18 20 23 26 28 30 30 28 26 25 23 21 20 19 18 20 22 23 24 26 27 27 28 27 26 26 30 33 35 37 39 40 40 38 33 29 30 32 32 32 33 33 34 35 36 36 37 38 39 41 43 44 45 45 44
18 18 18 19 20 19 20 20 19 19 19 20 21 22 21 20 20 19 18 18 17 14 13 14 14 13 13 14 16 18 19 21 23 26 29 31 31 30 29 27 25 22 22 21 20 22 25 24 24 24 24 25 28 29 28 29 32 36 38 40 41 40 39 36 31 28 29 31 32 33 33 34 34 35 36 37 38 39 41 42 44 45 46 45 44
21 21 21 22 22 22 22 22 21 21 21 23 24 25 24 23 23 23 23 22 20 18 18 18 17 16 15 15 16 18 19 22 24 26 29 31 33 33 32 30 27 24 23 22 22 24 26 25 24 23 23 26 29 30 29 31 34 37 39 40 41 41 38 35 33 31 31 32 33 34 34 34 34 35 37 38 39 40 42 43 45 46 46 44 42
25 25 25 25 25 25 24 23 24 23 23 24 25 26 27 26 26 26 27 26 25 23 23 22 21 20 18 17 18 17 18 21 24 26 29 32 34 35 34 32 29 26 25 24 24 25 26 25 24 25 25 27 30 31 30 31 34 38 40 41 42 41 39 36 35 35 35 36 35 35 35 35 36 37 38 39 40 41 43 44 45 45 45 43 41
28 28 29 29 28 27 27 28 27 26 25 26 26 27 28 28 28 28 29 30 30 28 27 26 26 25 23 22 21 19 19 21 24 27 30 33 36 37 36 34 31 28 27 27 26 26 26 25 26 27 27 29 32 32 31 31 35 38 41 42 43 42 40 38 38 38 38 38 37 36 36 36 37 39 40 40 41 42 43 44 44 44 43 42 41
29 28 28 28 30 32 33 33 30 28 28 29 28 28 29 29 30 30 30 32 33 33 33 31 31 30 29 28 26 23 23 24 26 29 32 35 37 38 37 36 34 31 30 29 27 27 27 27 28 28 28 31 34 34 32 33 35 39 41 43 44 44 41 40 39 39 39 39 38 37 37 37 39 40 40 41 42 43 43 44 44 43 43 42 41
28 26 24 26 32 37 39 38 33 30 30 31 30 30 30 30 32 33 34 35 35 35 36 35 34 35 35 34 32 30 28 27 28 30 33 36 38 38 39 39 36 34 33 31 29 29 29 29 30 29 30 33 36 35 34 34 36 40 43 44 45 45 44 41 41 40 40 39 38 38 38 39 40 40 41 42 42 43 43 42 42 42 41 40 38
29 28 26 27 33 37 39 40 37 33 33 33 31 31 33 33 35 36 36 36 36 37 38 39 39 39 39 38 38 36 34 33 32 31 34 37 39 40 41 41 38 36 35 32 31 31 31 31 31 31 32 35 37 36 36 36 39 43 45 45 46 47 46 43 42 41 41 40 39 38 39 40 40 40 41 42 42 42 41 41 40 40 39 38 36
33 31 29 30 32 34 37 39 38 36 35 35 34 35 35 35 37 37 37 37 37 39 39 39 40 40 40 41 41 40 38 37 36 34 35 38 41 42 42 42 41 39 37 35 33 33 34 34 33 32 34 37 38 38 38 39 42 44 45 46 47 48 46 44 43 42 41 40 39 38 39 40 41 41 41 42 41 40 40 39 39 38 37 36 35
35 33 33 33 32 34 36 36 36 35 34 34 34 35 34 34 36 37 37 38 39 40 41 40 39 37 36 36 37 37 39 41 41 40 40 41 42 43 43 43 43 43 41 38 36 35 35 35 35 35 36 39 40 40 40 41 44 45 46 46 47 48 47 45 44 43 42 40 39 39 39 40 41 41 41 41 39 39 38 38 37 36 35 34 33
39 38 37 34 32 33 33 32 31 32 32 32 33 33 34 35 37 37 38 39 40 41 41 41 40 37 34 33 34 35 37 41 43 44 43 44 44 44 43 44 45 46 44 41 39 38 37 37 37 37 39 40 41 41 42 43 44 46 46 47 48 48 47 46 45 43 42 41 39 39 40 40 41 41 41 40 38 38 37 37 35 34 33 32 32
41 39 36 34 32 32 32 32 32 32 33 34 35 36 37 39 41 41 41 42 42 43 42 42 43 42 39 37 36 37 39 43 46 47 46 46 48 48 46 45 47 48 45 43 43 42 41 40 39 40 42 43 43 43 44 44 45 47 47 47 49 49 48 47 46 43 42 41 39 39 40 40 41 41 40 38 37 37 36 35 34 32 31 31 32
38 37 35 35 34 34 34 35 36 36 37 38 38 39 41 43 44 45 46 46 46 46 45 45 45 46 45 43 40 38 39 44 48 50 50 50 50 51 50 49 50 50 47 46 47 46 44 43 43 43 45 47 46 46 46 46 47 48 47 47 49 49 48 47 46 44 42 41 39 40 40 40 41 41 39 37 36 35 34 33 32 31 30 31 32
39 39 39 38 38 37 37 37 39 40 41 42 42 43 44 44 47 49 49 50 50 49 48 48 48 49 50 49 46 42 41 44 47 48 50 53 54 54 53 53 53 53 51 50 50 49 47 47 47 47 48 50 50 49 49 49 49 50 49 48 49 50 49 47 45 43 42 40 40 40 40 39 40 40 38 36 35 33 33 32 30 29 30 31 33
42 42 42 42 42 41 41 41 42 43 44 46 47 47 47 47 49 50 51 52 51 51 51 52 52 52 52 52 50 47 45 46 47 45 47 50 55 58 59 57 56 54 53 54 54 53 52 51 50 50 51 53 54 52 51 51 52 52 52 51 51 51 49 46 44 43 41 40 40 39 39 39 40 39 37 35 33 32 31 31 29 28 29 31 33
46 46 46 47 47 47 47 46 46 46 47 48 49 50 50 50 50 51 52 53 53 52 53 54 54 54 53 52 53 53 52 50 49 48 49 51 54 57 59 61 59 56 55 56 57 57 57 55 53 54 56 57 57 55 54 54 54 55 55 54 53 52 49 45 43 42 40 40 39 39 38 39 39 38 36 33 32 31 30 29 28 28 29 31 33
51 51 50 50 49 48 47 47 47 47 48 48 49 50 51 52 52 53 54 54 55 55 56 57 57 56 55 54 56 58 58 54 50 49 50 52 55 58 61 61 59 58 59 58 58 61 62 59 57 58 60 61 61 58 56 56 56 57 58 57 54 52 48 44 42 40 40 39 39 38 38 38 38 36 34 32 30 30 29 28 28 28 29 31 32
51 50 49 47 46 45 45 45 46 47 48 49 50 52 53 54 56 56 56 57 58 58 60 60 59 57 58 58 58 60 61 58 54 53 53 56 60 63 62 59 57 58 60 61 62 64 64 62 60 62 63 64 62 59 57 57 57 58 59 58 56 53 48 42 40 39 39 39 38 38 37 37 37 35 33 31 29 29 28 27 27 27 29 30 31
48 46 46 45 45 45 46 47 48 49 51 52 53 54 56 57 58 59 59 60 60 61 62 63 62 61 62 62 61 61 61 60 59 60 60 61 62 63 62 62 61 58 57 61 65 67 66 64 63 65 66 64 58 55 55 56 57 58 59 58 56 52 45 41 39 39 39 38 38 37 37 37 36 34 31 29 28 27 27 26 26 26 28 29 30
47 47 47 47 47 48 49 50 51 52 53 54 54 55 55 56 58 59 59 60 60 62 64 65 64 65 66 66 64 63 64 64 66 67 65 64 65 66 65 67 67 61 57 61 66 67 68 69 67 67 66 60 53 50 52 54 56 57 58 56 54 49 43 40 39 38 38 38 37 37 37 36 35 33 30 28 27 26 25 24 25 25 27 28 28
49 49 49 50 51 51 51 52 52 52 53 53 54 54 54 55 56 58 59 60 61 63 64 66 66 67 68 68 67 65 66 68 69 69 67 66 69 72 71 70 68 64 62 65 67 69 70 71 71 70 66 58 50 48 49 52 54 55 55 55 53 47 41 40 39 37 38 38 37 37 36 35 34 32 29 27 26 24 23 23 24 25 26 26 26
50 51 52 53 54 54 54 53 53 53 53 54 54 54 55 56 57 58 59 60 63 65 66 67 68 68 69 70 69 69 71 72 72 73 72 70 71 75 77 75 72 69 69 69 68 69 70 70 72 72 66 57 51 49 48 50 52 52 53 54 51 44 41 39 38 37 38 38 37 36 35 34 34 32 28 26 24 23 22 22 23 24 25 24 23
52 52 53 55 56 57 56 56 55 54 54 53 54 54 55 56 58 59 60 61 63 66 67 68 69 70 71 72 72 73 75 75 74 74 73 74 76 78 78 76 73 71 71 70 66 66 68 70 73 72 65 58 56 52 48 49 49 48 49 50 46 42 40 38 36 37 38 37 36 36 34 34 34 31 27 25 23 22 21 21 22 23 23 22 22
55 56 56 58 59 59 59 57 55 54 53 53 54 55 55 57 59 60 61 62 64 66 67 69 70 71 73 74 77 80 81 81 79 77 75 76 79 81 80 78 75 72 70 68 64 63 67 73 74 68 60 57 57 53 50 50 49 47 48 48 44 41 39 37 36 37 38 37 36 35 34 34 33 30 27 24 22 21 20 20 21 22 22 21 22
56 56 56 57 57 57 55 54 53 53 53 53 54 54 54 56 57 59 61 63 66 68 69 69 69 71 74 77 80 82 83 82 78 77 78 80 83 83 81 78 76 72 69 67 65 63 65 70 70 64 59 58 57 54 53 52 50 48 48 47 43 41 38 35 36 38 37 36 35 34 33 33 32 29 26 24 22 21 20 20 20 21 21 20 21
52 53 54 54 53 52 52 51 51 51 51 51 51 51 53 55 57 59 61 63 66 69 69 69 69 70 72 76 80 86 92 92 86 79 79 83 86 85 80 75 73 72 69 66 66 63 60 60 63 63 63 63 61 57 54 51 49 48 47 44 42 40 37 35 37 38 37 36 35 33 33 33 31 29 26 24 22 20 19 19 20 21 20 20 21
51 52 53 53 52 51 51 50 49 49 49 49 49 50 52 54 56 58 59 62 66 69 70 69 68 66 68 76 81 78 76 79 81 81 79 81 84 84 79 71 66 67 67 65 63 60 55 54 57 59 58 59 58 55 50 47 46 45 43 41 41 40 37 35 37 37 36 35 35 33 32 32 30 28 26 24 22 20 19 19 20 20 20 20 21
50 50 50 51 50 49 48 48 47 47 48 49 50 51 52 54 54 55 57 59 62 65 66 66 63 61 63 62 51 35 29 35 51 65 71 76 79 79 78 73 66 63 62 60 59 57 54 51 51 52 52 54 54 51 46 44 43 42 40 40 40 38 36 36 37 37 35 35 34 33 32 31 29 27 25 24 22 20 19 20 20 21 21 20 21
49 48 48 48 47 47 46 46 46 47 48 49 51 52 52 52 52 53 55 57 57 57 57 55 52 54 55 43 21 12 8 14 37 53 61 66 69 68 72 75 72 64 59 56 56 56 54 50 50 53 54 53 50 45 42 40 39 38 39 39 38 36 35 36 37 36 35 35 33 32 31 30 28 27 25 24 22 21 20 20 21 21 21 21 21
49 48 48 47 46 45 45 45 44 45 47 48 50 51 51 51 50 51 53 53 51 50 48 43 39 43 46 36 18 6 6 24 41 50 52 55 59 62 64 67 68 67 65 62 59 56 52 50 50 52 51 47 43 40 40 39 37 37 38 38 36 35 35 36 36 35 34 34 33 32 31 29 28 27 26 24 23 21 21 21 22 22 22 22 22
49 48 47 46 46 45 44 44 44 44 45 47 48 49 49 49 48 48 48 47 44 42 40 35 30 30 31 27 20 15 15 21 29 37 42 45 49 53 54 53 55 59 60 56 53 51 50 48 46 45 44 41 39 38 38 37 37 38 38 36 35 35 36 36 35 34 34 33 33 32 30 29 28 27 26 25 23 22 22 23 23 24 24 23 23
48 47 46 46 46 46 45 45 45 46 47 48 48 48 47 47 46 46 44 41 39 37 33 28 25 24 23 18 13 9 14 21 28 38 45 48 49 48 45 44 46 48 49 48 48 49 48 46 43 42 41 40 38 36 36 36 36 37 36 35 34 36 36 36 35 34 33 33 32 31 30 28 27 27 27 26 24 23 23 24 24 25 25 24 24
46 46 46 47 47 48 48 49 49 49 50 49 48 48 48 47 46 45 42 38 35 32 29 25 22 23 23 21 15 10 10 14 20 28 40 48 50 45 41 40 40 41 42 42 42 42 41 40 41 41 41 39 37 36 35 36 36 36 35 34 35 36 36 36 34 33 32 32 32 31 30 28 28 28 28 27 25 24 24 25 26 26 26 26 26
44 45 45 47 48 49 50 51 51 50 50 49 48 47 47 46 43 41 40 37 33 30 28 25 22 22 23 22 18 13 10 11 14 18 24 30 32 31 29 29 29 29 30 31 32 33 36 38 39 39 38 37 36 36 36 37 36 35 34 34 35 36 36 35 34 33 32 32 32 31 30 29 28 29 28 27 26 25 25 26 27 27 27 27 27
42 43 44 45 46 47 47 48 48 48 48 47 46 44 43 42 39 36 36 35 32 30 29 27 24 22 22 22 20 17 14 14 15 16 18 20 21 21 20 20 23 25 27 30 33 35 37 38 39 39 38 37 36 36 37 37 35 34 34 35 36 36 36 35 34 33 32 32 31 31 30 29 29 29 29 28 27 26 26 27 28 28 28 28 29
39 40 42 42 42 43 43 44 44 45 44 44 43 42 40 39 38 36 34 33 31 29 29 28 27 24 22 21 20 19 19 18 18 18 19 19 19 18 18 21 26 29 31 33 35 36 36 38 39 38 37 36 36 38 37 35 33 33 34 34 35 36 36 36 34 33 32 32 31 31 30 30 30 30 29 28 28 27 27 28 29 29 29 29 30
36 37 38 38 38 39 40 40 41 42 42 42 41 40 38 38 38 36 33 32 31 29 27 26 26 25 23 21 19 17 18 18 18 18 19 20 20 20 21 24 28 32 35 37 37 36 36 37 37 36 35 36 37 36 34 32 32 33 34 34 34 35 36 36 35 34 33 32 31 31 31 30 30 30 30 29 28 28 28 29 29 30 30 30 31
35 35 35 35 35 36 37 38 39 40 41 41 40 38 36 36 37 35 32 31 32 30 26 24 23 23 22 20 16 13 14 17 19 20 21 22 23 25 26 28 29 32 35 37 37 36 35 35 36 36 36 35 34 33 32 32 33 33 33 34 35 35 36 36 36 34 33 32 32 32 31 31 31 31 30 30 29 29 30 30 30 30 31 31 31
35 35 34 33 33 33 35 36 37 38 38 39 38 36 35 35 35 34 33 32 30 27 24 22 21 20 20 19 16 13 14 17 20 22 25 27 30 32 33 34 35 36 37 38 38 38 36 35 35 35 33 32 31 32 32 32 33 33 33 34 35 35 35 36 36 35 34 33 33 32 32 32 32 32 31 31 30 30 31 31 30 31 31 32 32
35 34 34 32 32 32 32 33 34 35 36 37 36 35 35 35 35 34 33 32 30 27 24 23 22 20 18 18 18 17 19 22 24 26 29 31 33 35 36 36 37 37 37 36 36 35 35 34 33 32 32 31 31 32 32 33 33 34 34 35 34 34 35 35 35 36 35 34 33 33 33 32 32 32 32 32 32 31 31 32 31 31 32 32 32
Wind_Direction
238 239 241 242 243 244 245 245 245 245 244 244 244 245 246 247 246 245 246 247 249 250 251 252 252 251 253 258 264 268 266 262 262 263 261 264 274 286 303 319 325 331 344 1 10 9 7 5 2 358 354 354 352 351 350 347 344 342 340 339 337 334 330 326 323 322 323 326 327 325 320 317 317 317 315 313 312 310 308 306 303 299 295 293 292
238 238 239 240 240 240 242 244 245 246 246 244 244 244 245 247 247 247 248 249 250 252 253 254 254 252 252 256 261 265 264 260 260 261 259 261 268 279 297 312 316 319 329 346 355 355 354 355 353 347 342 342 342 343 343 340 338 335 333 333 331 327 322 318 316 316 317 319 321 321 318 314 314 315 314 312 311 310 308 306 304 301 298 296 294
236 234 235 237 239 242 245 248 251 251 251 249 246 245 245 246 247 248 249 249 250 253 255 256 255 253 252 254 259 262 261 257 257 259 257 258 264 272 288 304 308 310 318 330 337 338 338 339 338 335 332 330 330 331 330 328 326 326 326 326 326 322 317 314 314 314 314 316 318 318 315 312 311 312 312 313 312 311 309 307 306 304 301 298 296
236 233 234 236 239 244 250 253 255 254 253 250 247 246 245 245 247 248 249 250 252 254 255 256 256 254 251 253 256 259 259 255 253 255 253 253 257 263 277 292 298 299 307 319 326 328 330 330 329 328 327 325 321 320 319 319 319 319 319 320 321 320 317 315 314 313 313 314 316 317 316 313 311 310 311 313 313 313 312 310 309 306 303 300 297
237 235 235 237 240 247 253 255 256 256 254 252 250 248 247 247 248 249 250 252 253 254 255 256 256 254 250 249 251 253 255 252 251 253 252 250 252 257 267 280 287 291 300 311 318 323 327 327 325 327 330 330 325 318 313 313 315 316 316 318 320 320 317 315 313 311 310 312 314 315 316 315 314 314 314 316 316 315 314 313 311 307 302 299 296
235 234 235 238 242 249 253 252 253 256 258 258 256 254 252 252 252 253 254 256 257 258 257 256 255 252 247 245 246 249 251 251 250 252 251 248 248 252 260 272 281 287 295 306 313 319 323 323 324 329 333 337 338 331 320 314 314 314 315 319 321 320 316 314 312 310 308 309 311 312 313 313 313 314 316 319 319 317 315 314 312 307 303 300 298
230 230 233 237 243 249 252 251 252 256 261 264 264 265 265 263 261 261 262 265 267 267 265 262 258 254 248 245 245 246 248 249 250 251 252 249 247 249 255 265 275 283 292 302 309 315 318 320 323 328 337 348 352 345 331 320 317 317 318 321 323 321 317 314 312 310 306 306 307 308 308 309 310 313 317 320 320 319 318 316 315 312 308 306 302
225 226 231 236 243 249 250 249 251 256 263 268 274 284 294 294 288 282 280 279 277 274 272 270 266 261 256 251 247 247 249 250 249 251 252 250 247 247 251 258 269 278 287 297 304 310 314 316 319 324 338 354 354 346 337 329 324 323 325 325 323 320 317 313 310 307 305 305 305 305 306 307 309 314 318 319 320 320 320 319 318 316 312 308 304
222 224 229 236 242 245 246 248 251 256 262 269 277 286 299 309 313 313 308 300 291 283 277 276 275 272 266 259 254 252 255 254 250 250 252 251 249 247 248 253 263 273 282 292 299 306 310 310 312 320 334 343 341 338 339 337 333 329 327 326 323 320 317 312 307 303 303 303 303 304 306 308 311 315 317 318 319 319 319 319 318 316 313 310 304
224 226 230 236 241 243 245 248 251 255 261 267 274 281 290 298 306 314 316 317 314 306 294 286 280 274 270 267 262 260 261 257 250 248 250 252 251 249 248 251 259 268 278 288 294 301 305 303 304 312 323 326 327 329 332 335 334 331 327 325 323 320 317 312 306 301 300 301 301 303 306 310 313 316 316 317 317 317 316 317 316 315 313 311 305
227 229 231 235 239 243 246 248 251 255 260 266 271 277 284 287 294 302 308 311 312 313 316 308 291 276 269 266 263 263 263 258 251 249 251 252 253 253 251 251 256 265 274 283 290 294 296 298 302 308 312 314 317 321 325 329 332 330 328 325 324 322 319 314 308 302 299 299 300 304 308 312 314 315 315 316 315 315 315 316 315 313 312 310 306
229 231 234 239 242 245 246 248 251 255 259 264 269 272 274 276 282 290 297 298 297 302 310 310 301 289 276 266 261 261 262 259 255 253 252 253 255 255 254 253 256 262 270 279 287 289 290 297 307 312 310 309 312 317 323 328 331 330 329 327 326 324 321 317 313 305 299 298 301 306 310 312 312 313 314 315 314 315 316 315 314 313 311 310 308
232 233 236 241 243 244 247 249 251 254 257 260 262 265 267 270 275 280 283 284 286 291 297 297 296 295 287 274 263 259 258 260 261 259 256 255 256 257 257 256 256 260 268 276 283 286 289 297 308 312 312 312 312 315 321 328 329 329 327 327 326 325 322 319 316 309 303 303 306 309 310 311 312 313 314 314 315 316 317 316 314 314 313 312 310
234 235 236 239 240 240 244 248 252 253 254 255 257 260 263 265 268 271 274 278 281 284 286 286 286 288 290 284 273 262 258 259 261 262 260 257 257 258 259 259 258 260 267 274 279 283 289 297 305 309 312 312 312 313 319 325 326 325 324 325 326 326 322 319 316 313 310 309 309 310 311 312 313 314 314 315 316 318 318 317 316 315 315 314 311
235 237 237 238 239 240 243 247 251 253 253 254 255 256 259 262 264 266 270 273 276 277 277 279 280 282 285 284 278 270 261 258 258 261 261 259 258 258 259 261 262 262 265 270 275 280 286 293 300 304 308 309 309 311 315 321 322 322 322 324 325 325 321 318 316 315 313 313 312 313 313 314 314 315 315 316 318 319 318 317 317 316 316 314 310
238 239 239 240 240 241 242 242 245 249 252 253 253 253 255 257 259 262 264 268 271 272 271 273 276 278 278 277 276 273 265 257 253 255 258 257 256 257 259 262 263 263 264 267 271 276 282 287 292 297 302 305 305 307 312 317 319 318 319 322 324 323 320 317 315 315 314 314 314 314 314 314 314 315 315 317 318 318 318 318 319 318 316 313 310
249 246 246 247 244 241 240 240 239 243 249 251 252 252 253 253 255 257 259 262 265 267 267 268 269 270 271 271 271 270 267 260 254 253 254 255 255 256 259 261 262 262 263 265 270 274 278 282 287 292 297 300 301 304 309 313 314 314 316 320 322 322 319 316 314 314 313 313 313 313 313 313 314 314 315 317 318 319 320 320 319 317 315 313 310
255 255 258 255 248 243 241 240 237 237 243 247 248 250 250 251 251 252 252 253 254 257 259 259 260 261 264 267 268 268 267 264 260 255 254 255 255 255 256 259 260 261 262 264 268 272 275 279 283 288 292 296 298 301 305 308 309 310 313 316 318 320 319 315 313 312 312 312 312 312 312 313 314 314 315 317 318 320 320 319 317 316 314 313 312
253 258 258 251 249 249 247 243 238 235 238 242 245 248 250 251 253 255 259 261 262 262 260 259 258 257 256 259 262 263 265 267 265 262 259 257 257 256 256 258 260 261 262 264 265 268 272 276 279 284 288 291 294 297 300 303 304 306 309 312 314 317 317 314 311 310 311 311 311 311 311 312 313 314 315 316 318 320 319 318 316 315 315 315 315
250 254 251 249 253 257 256 250 244 241 241 241 242 246 250 256 261 265 269 273 274 274 272 270 268 266 263 259 256 255 258 262 265 266 264 261 259 258 258 259 261 261 262 263 263 265 268 272 276 281 285 287 290 293 295 298 300 303 307 309 311 315 315 312 309 309 310 310 310 310 311 311 312 313 314 316 319 320 318 317 316 316 317 317 317
253 254 254 254 257 259 260 257 252 252 256 255 253 255 260 267 271 273 275 277 278 278 277 276 278 279 277 273 265 259 256 257 259 262 265 264 262 261 260 261 262 263 262 262 262 262 265 269 274 278 281 283 286 288 291 294 297 300 304 306 308 312 313 310 308 308 309 309 309 308 309 310 311 312 314 316 319 319 318 318 318 317 318 319 318
254 256 256 256 258 262 264 263 261 265 270 272 273 274 276 277 278 278 278 279 280 280 278 277 279 280 278 276 273 267 261 258 256 257 259 262 264 263 262 262 262 263 264 263 262 262 263 266 270 274 277 279 282 284 286 289 293 297 300 303 305 308 310 309 307 307 307 307 307 307 308 309 310 311 314 316 318 319 320 319 318 318 319 320 319
250 253 255 257 261 267 270 271 271 273 274 275 277 277 277 278 280 280 279 279 278 278 277 276 278 278 276 273 271 267 264 263 261 256 253 256 261 262 263 262 262 263 264 263 263 262 261 263 267 270 273 276 278 281 283 286 290 293 295 299 302 304 307 307 306 306 306 305 305 306 307 308 309 311 313 316 319 320 320 319 318 318 320 320 319
251 254 258 260 263 266 269 270 271 272 272 272 272 273 275 277 278 278 278 278 277 276 276 276 277 278 277 275 271 270 269 268 265 259 251 250 254 258 260 260 259 261 262 261 261 261 261 262 265 267 270 273 276 278 281 283 286 289 292 295 299 301 304 305 303 303 304 303 303 304 305 307 308 311 313 315 318 319 319 318 318 320 321 321 320
253 256 259 262 263 263 264 264 265 267 269 270 270 271 271 271 272 273 275 275 276 276 276 277 277 278 278 278 276 276 275 272 269 264 257 251 250 252 254 255 256 257 259 260 260 261 261 261 263 265 268 271 273 276 278 281 284 287 289 292 295 299 303 302 300 301 302 302 301 302 304 306 308 309 312 315 317 318 318 318 319 321 322 322 321
255 257 260 262 263 263 263 263 263 263 265 267 268 268 267 267 267 269 270 271 273 274 274 276 276 277 279 280 280 279 276 273 270 269 266 261 255 251 250 251 252 253 256 258 258 259 260 260 262 265 267 268 270 273 276 279 282 284 287 290 293 298 301 300 297 298 300 299 299 301 303 305 307 308 311 313 315 317 318 319 320 322 322 322 322
257 259 261 262 264 265 265 265 264 263 263 264 265 266 267 267 267 267 269 271 272 273 273 273 274 276 277 278 277 275 274 273 269 267 268 269 266 261 257 255 253 251 252 254 256 258 259 260 262 265 266 266 269 272 274 277 280 282 285 288 291 296 299 296 294 296 298 297 298 301 302 304 306 307 309 312 315 316 318 320 322 323 323 322 322
259 260 262 263 264 264 264 264 263 263 264 265 266 267 268 269 270 270 271 271 272 273 273 271 271 272 272 272 270 269 269 270 268 266 265 267 268 267 264 262 259 255 251 252 254 256 257 258 259 262 264 265 268 270 273 275 278 281 283 285 289 294 296 293 291 294 295 295 297 299 301 302 304 306 308 312 315 317 318 321 322 323 323 322 322
259 260 261 262 262 262 262 263 264 265 266 267 269 270 270 271 272 272 272 271 271 271 271 270 270 269 268 267 266 266 267 269 269 267 263 261 262 263 260 259 260 259 254 252 251 252 254 255 257 258 260 263 266 269 272 274 275 278 281 283 288 293 292 289 290 292 292 293 296 297 299 301 303 304 308 312 314 316 319 320 322 322 322 322 323
258 259 259 260 261 262 263 264 265 266 267 267 268 269 270 270 270 271 271 270 270 270 269 269 269 268 266 265 263 263 266 268 267 264 260 257 257 258 256 255 256 256 254 253 252 251 251 252 253 254 255 259 264 268 271 272 273 276 278 282 288 292 290 286 288 290 290 292 294 295 297 300 301 303 307 311 313 316 318 320 320 321 321 322 325
258 259 260 261 262 263 264 265 267 268 268 268 268 268 269 269 269 269 269 269 268 269 269 269 269 268 267 266 264 263 263 263 263 263 263 260 258 257 255 254 253 253 252 253 253 252 252 251 251 251 252 255 262 267 269 270 272 275 277 281 287 290 288 285 286 287 288 291 292 292 295 299 300 302 305 309 312 314 317 318 318 319 320 323 327
261 262 263 263 264 265 266 267 269 270 271 271 271 271 271 271 270 269 270 269 268 268 268 269 269 268 268 268 267 265 263 261 261 261 262 261 260 259 256 253 253 252 251 251 252 252 253 252 252 251 251 253 259 266 269 269 271 273 276 282 287 287 285 284 284 285 287 289 289 291 295 297 299 300 303 307 310 312 314 315 316 318 320 324 328
264 264 264 265 266 266 267 269 270 272 273 273 273 273 273 273 271 271 270 270 270 270 271 271 271 270 270 270 270 268 266 263 260 258 257 257 258 256 253 251 252 251 251 251 251 251 252 252 251 251 252 253 256 264 270 271 271 273 277 282 286 286 283 282 282 284 286 287 287 290 294 296 297 298 301 303 306 309 311 312 314 317 321 324 327
266 265 266 267 267 268 269 270 272 273 274 274 274 274 273 273 272 272 271 270 271 271 272 273 273 273 273 272 271 270 268 264 261 257 254 253 254 253 252 251 250 249 250 252 253 252 250 249 248 250 253 253 255 262 270 272 271 273 278 282 284 282 279 279 281 282 284 284 286 289 293 294 295 296 297 299 301 304 308 310 313 316 319 322 326
266 266 267 267 268 269 270 271 272 273 273 274 274 273 272 272 272 272 272 272 272 272 273 274 275 276 276 275 273 271 268 265 262 258 255 252 250 250 250 250 249 249 251 254 256 255 251 246 244 247 252 255 255 260 267 269 269 273 279 281 281 279 277 277 279 280 281 282 284 288 291 292 292 293 293 294 296 300 305 309 311 314 316 319 324
266 267 268 268 268 270 270 271 272 272 272 272 272 271 271 271 271 273 274 274 274 275 275 276 277 279 279 278 277 274 270 266 261 256 252 249 248 248 248 248 247 249 251 254 257 258 255 250 248 251 257 260 260 261 265 268 269 274 279 280 279 277 275 275 276 278 279 280 283 287 289 290 290 290 290 289 292 297 303 307 308 310 313 316 321
268 268 269 269 269 269 270 270 271 270 269 269 269 268 270 271 272 274 275 276 278 279 278 279 281 282 283 283 281 278 273 266 258 250 246 244 243 243 244 244 246 248 249 251 254 255 254 253 253 254 258 262 262 260 262 267 271 275 277 276 276 275 273 272 274 276 277 279 282 285 287 288 288 288 287 287 289 294 300 303 304 306 308 312 317
270 269 269 268 268 269 268 268 268 268 267 267 268 268 270 271 273 276 277 279 282 283 283 286 288 289 291 290 285 280 276 266 253 243 239 237 237 238 239 239 242 245 247 249 250 251 254 257 256 254 257 263 263 260 262 268 273 273 273 274 274 273 270 269 272 274 275 278 281 283 285 286 286 286 285 284 286 291 296 299 300 302 303 307 312
269 268 267 267 267 267 266 266 266 266 267 268 268 270 271 273 275 277 279 281 285 287 290 294 296 298 301 299 291 288 293 275 249 234 227 226 229 233 236 236 238 242 245 246 247 249 255 259 257 255 262 268 266 262 264 271 273 272 273 274 273 270 267 268 271 272 274 277 280 282 284 285 284 284 282 281 283 288 292 295 296 296 297 302 308
266 266 265 265 265 265 265 265 265 266 267 268 269 270 273 275 277 279 281 283 288 291 294 298 302 302 304 310 327 12 7 240 219 212 211 215 221 228 233 235 237 240 243 245 246 248 252 256 257 260 265 268 264 262 266 271 272 272 273 273 270 266 265 267 269 270 273 276 279 281 282 282 282 281 279 279 281 285 289 290 291 291 293 297 303
267 266 264 264 264 264 264 264 265 266 267 269 270 271 273 276 277 279 282 285 289 293 295 301 308 305 298 297 309 353 142 169 176 183 192 204 216 225 232 236 239 239 241 244 246 247 251 257 261 261 262 262 263 264 267 270 271 272 272 269 265 263 264 266 268 269 272 275 277 279 280 280 279 278 277 277 279 282 284 286 287 287 289 293 299
266 266 264 263 263 263 262 263 265 267 269 271 272 272 273 275 275 277 280 283 287 293 297 301 305 302 293 288 285 269 230 204 202 206 206 207 215 225 234 238 236 234 235 240 243 246 253 261 262 257 255 260 265 267 268 270 270 271 269 264 260 262 264 265 266 268 271 274 276 277 278 278 278 276 275 276 277 278 280 282 283 284 285 289 294
264 264 263 262 262 262 262 262 265 268 270 273 274 273 272 272 272 273 276 279 281 287 296 302 300 293 291 301 311 280 241 238 243 240 232 225 224 230 237 239 236 235 238 244 247 251 257 262 259 254 256 263 267 267 269 270 269 267 264 260 259 261 263 263 265 268 270 272 274 276 276 276 275 274 274 275 276 275 276 278 280 281 282 286 290
263 264 264 264 264 264 264 264 266 268 270 271 272 272 271 271 271 272 274 275 276 278 287 298 300 293 290 296 306 296 256 246 246 241 234 231 231 235 241 244 244 246 248 250 251 254 256 257 255 255 259 264 265 266 267 267 266 263 260 257 258 260 261 262 265 267 269 271 273 274 275 274 273 273 273 274 274 273 274 276 278 279 280 283 287
264 264 265 266 266 266 266 265 266 267 268 269 270 271 270 270 270 271 272 273 272 271 276 284 291 293 292 293 295 290 270 250 240 232 228 228 231 236 242 246 250 253 253 252 251 251 252 253 255 257 261 264 264 265 265 265 263 259 256 255 257 260 261 263 265 267 268 270 271 272 273 272 272 272 273 273 272 272 272 274 276 278 280 282 284
264 265 265 266 266 266 267 267 267 267 267 267 268 268 267 266 266 267 269 272 271 270 271 277 284 288 287 285 283 278 267 254 247 242 236 234 237 242 248 254 257 256 255 254 253 253 254 256 258 260 262 263 263 263 264 262 258 254 253 255 258 260 261 263 265 266 268 269 270 271 271 271 271 272 272 272 271 271 271 272 275 277 279 281 282
266 266 266 266 267 267 267 268 268 267 266 266 265 264 262 262 263 264 267 271 273 272 272 276 281 287 288 284 277 268 260 255 254 255 253 253 255 256 254 253 256 258 258 257 256 256 257 258 259 259 260 261 262 263 261 257 252 251 254 257 259 260 262 264 265 266 267 268 268 269 270 270 270 271 271 270 270 270 269 271 274 276 278 280 281
269 269 268 268 268 267 267 267 267 266 265 264 262 259 258 260 262 265 269 274 277 278 278 279 283 287 287 283 275 263 252 244 240 241 242 245 248 246 239 239 248 256 258 257 258 260 259 257 255 255 257 260 261 259 255 251 250 253 256 258 259 260 262 264 265 266 267 267 267 268 268 269 269 270 269 269 269 268 268 270 273 276 278 279 280
271 270 270 269 268 266 265 265 264 263 262 261 258 256 257 260 264 268 272 276 279 281 281 281 284 284 281 276 270 257 238 225 221 223 226 225 225 226 226 228 236 243 247 250 255 259 258 254 253 254 256 257 255 251 248 249 252 254 256 257 258 260 262 264 265 266 266 266 266 266 266 267 268 268 268 268 267 266 267 269 272 275 277 279 280
270 270 270 269 268 266 265 264 263 260 258 257 256 256 258 261 264 267 268 270 273 276 277 278 276 272 266 261 255 244 231 226 224 226 228 227 225 227 230 233 237 241 244 248 252 256 256 254 254 253 251 248 246 246 248 251 253 254 255 256 257 259 262 264 265 266 267 266 266 265 266 266 267 267 267 267 265 264 265 267 271 274 277 278 280
269 269 268 268 268 267 266 265 263 260 257 256 256 258 260 262 263 265 264 263 263 264 266 267 267 264 259 252 245 241 242 245 244 242 239 237 236 236 238 240 242 245 248 250 253 255 255 253 249 245 242 242 244 247 250 252 253 255 256 256 258 260 262 263 265 266 267 266 265 265 265 265 265 266 266 265 264 263 264 266 269 273 276 278 280
Height
5900 5901 5902 5902 5903 5904 5905 5906 5906 5907 5908 5908 5909 5910 5911 5912 5913 5913 5915 5916 5917 5918 5918 5919 5920 5921 5921 5922 5922 5923 5923 5923 5923 5923 5923 5923 5923 5922 5922 5921 5920 5919 5918 5917 5916 5915 5914 5913 5912 5911 5910 5910 5909 5908 5907 5907 5906 5906 5905 5904 5903 5902 5901 5899 5898 5897 5896 5896 5895 5893 5891 5890 5888 5887 5886 5884 5883 5881 5880 5878 5876 5874 5872 5871 5870
5897 5898 5899 5900 5901 5902 5902 5903 5904 5904 5905 5906 5907 5907 5908 5909 5910 5911 5912 5913 5914 5915 5916 5917 5918 5919 5919 5920 5920 5921 5921 5921 5921 5921 5921 5921 5921 5921 5921 5920 5919 5918 5917 5916 5915 5914 5913 5912 5911 5910 5909 5908 5907 5907 5906 5905 5904 5903 5903 5902 5901 5900 5899 5897 5896 5894 5893 5893 5892 5891 5890 5888 5886 5884 5883 5882 5880 5879 5877 5875 5873 5871 5869 5868 5866
5895 5895 5896 5898 5899 5899 5900 5901 5902 5902 5903 5903 5904 5904 5905 5906 5906 5908 5909 5910 5912 5913 5914 5914 5915 5916 5917 5918 5918 5918 5919 5919 5919 5919 5919 5919 5919 5919 5919 5919 5918 5917 5916 5915 5914 5913 5912 5911 5910 5909 5908 5907 5906 5905 5904 5903 5902 5901 5900 5899 5899 5898 5897 5895 5894 5892 5890 5889 5888 5888 5887 5885 5884 5882 5881 5879 5877 5876 5874 5872 5870 5868 5866 5864 5862
5892 5893 5894 5895 5896 5897 5898 5899 5899 5900 5900 5901 5901 5901 5902 5902 5903 5905 5906 5907 5909 5910 5911 5912 5913 5914 5915 5915 5916 5916 5916 5916 5917 5917 5917 5917 5917 5917 5917 5917 5916 5916 5915 5914 5913 5912 5911 5910 5909 5907 5906 5905 5904 5903 5902 5901 5900 5900 5899 5898 5897 5896 5895 5893 5892 5890 5887 5885 5884 5883 5882 5882 5880 5879 5878 5876 5874 5872 5870 5869 5867 5865 5862 5860 5858
5889 5891 5892 5893 5894 5895 5896 5897 5897 5898 5898 5898 5898 5899 5899 5900 5901 5902 5903 5904 5906 5907 5908 5908 5909 5911 5912 5913 5913 5913 5913 5914 5914 5914 5915 5915 5915 5915 5916 5915 5915 5914 5913 5913 5912 5911 5910 5909 5907 5906 5905 5904 5903 5902 5901 5900 5899 5898 5898 5897 5896 5894 5893 5892 5890 5888 5885 5883 5880 5879 5877 5876 5875 5874 5873 5872 5871 5869 5867 5865 5863 5861 5858 5855 5853
5887 5888 5889 5891 5892 5893 5894 5895 5895 5896 5896 5896 5897 5897 5897 5898 5898 5899 5900 5901 5903 5903 5904 5905 5906 5907 5909 5909 5910 5910 5910 5911 5911 5912 5912 5912 5913 5913 5913 5913 5913 5912 5911 5911 5911 5910 5908 5907 5905 5904 5903 5902 5902 5901 5900 5899 5898 5897 5896 5895 5894 5893 5892 5890 5888 5886 5884 5881 5878 5876 5874 5872 5870 5869 5868 5867 5867 5865 5863 5861 5859 5857 5853 5851 5848
5884 5885 5887 5888 5890 5891 5892 5893 5893 5894 5894 5895 5895 5895 5895 5896 5896 5897 5898 5899 5900 5901 5901 5902 5903 5904 5905 5906 5906 5907 5907 5908 5908 5909 5909 5910 5910 5910 5911 5911 5910 5910 5910 5909 5909 5908 5906 5905 5903 5902 5902 5902 5901 5900 5899 5897 5896 5894 5893 5893 5892 5891 5890 5888 5886 5884 5882 5879 5876 5874 5872 5870 5867 5865 5864 5863 5861 5860 5858 5857 5855 5852 5849 5846 5844
5881 5883 5884 5886 5888 5889 5890 5890 5891 5891 5892 5893 5893 5894 5894 5894 5895 5895 5896 5897 5897 5898 5899 5899 5900 5901 5902 5902 5903 5903 5904 5905 5905 5906 5906 5907 5908 5908 5908 5908 5908 5908 5908 5908 5907 5906 5904 5902 5901 5900 5901 5900 5900 5898 5897 5895 5893 5892 5891 5890 5889 5888 5886 5885 5883 5881 5879 5876 5873 5871 5869 5867 5864 5862 5861 5858 5856 5855 5853 5851 5850 5848 5845 5841 5839
5878 5880 5882 5884 5886 5886 5887 5887 5888 5889 5890 5891 5891 5892 5892 5892 5893 5893 5894 5894 5895 5895 5896 5897 5898 5898 5899 5899 5899 5900 5901 5902 5903 5903 5903 5904 5904 5905 5905 5905 5905 5905 5906 5905 5904 5903 5902 5900 5898 5898 5899 5899 5898 5896 5895 5892 5891 5890 5889 5888 5886 5884 5883 5881 5879 5877 5875 5873 5870 5867 5865 5863 5861 5859 5857 5855 5852 5850 5848 5846 5845 5843 5840 5837 5834
5876 5878 5880 5882 5883 5883 5884 5885 5886 5886 5887 5888 5889 5889 5890 5890 5891 5892 5892 5892 5893 5893 5894 5894 5895 5895 5896 5896 5896 5897 5898 5899 5900 5900 5900 5900 5901 5901 5902 5902 5902 5903 5903 5903 5902 5900 5899 5897 5895 5896 5897 5896 5895 5894 5893 5891 5889 5888 5887 5885 5883 5881 5878 5876 5874 5872 5871 5869 5866 5863 5861 5859 5857 5855 5853 5851 5849 5846 5844 5842 5840 5837 5835 5833 5829
5874 5875 5877 5879 5879 5880 5881 5882 5883 5884 5885 5886 5886 5887 5887 5888 5888 5889 5890 5890 5890 5891 5891 5892 5892 5892 5893 5893 5893 5894 5895 5896 5896 5897 5897 5897 5897 5898 5899 5899 5899 5900 5900 5900 5899 5897 5895 5894 5893 5893 5894 5893 5892 5891 5890 5888 5887 5885 5884 5882 5880 5877 5874 5871 5869 5868 5867 5865 5862 5860 5858 5855 5853 5851 5849 5847 5845 5843 5840 5837 5835 5832 5830 5827 5824
5871 5873 5874 5875 5876 5877 5878 5879 5880 5881 5882 5883 5884 5884 5884 5885 5886 5887 5887 5888 5888 5888 5889 5889 5889 5889 5889 5890 5890 5891 5892 5893 5893 5893 5893 5893 5893 5894 5895 5895 5896 5897 5897 5897 5896 5894 5892 5891 5891 5891 5890 5889 5888 5888 5887 5885 5883 5882 5880 5878 5876 5873 5870 5867 5865 5864 5863 5861 5859 5857 5854 5852 5850 5847 5845 5843 5841 5839 5836 5833 5830 5827 5825 5822 5819
5868 5870 5871 5872 5873 5874 5875 5876 5877 5878 5880 5880 5881 5881 5881 5882 5883 5884 5885 5885 5885 5886 5886 5886 5886 5886 5886 5886 5887 5887 5888 5889 5889 5890 5890 5890 5890 5890 5891 5892 5893 5894 5894 5893 5892 5890 5888 5888 5888 5888 5887 5886 5885 5884 5883 5881 5879 5878 5876 5875 5873 5870 5867 5864 5862 5860 5859 5858 5856 5854 5851 5848 5846 5844 5841 5839 5837 5834 5831 5828 5825 5822 5820 5817 5814
5865 5867 5868 5869 5871 5871 5872 5873 5874 5875 5876 5877 5877 5878 5878 5880 5880 5881 5881 5882 5882 5883 5883 5883 5883 5884 5884 5884 5883 5883 5884 5885 5885 5886 5886 5886 5886 5886 5886 5887 5889 5890 5890 5889 5888 5886 5885 5885 5884 5884 5884 5883 5882 5880 5879 5878 5876 5875 5873 5872 5870 5867 5864 5861 5859 5857 5856 5855 5853 5850 5847 5844 5842 5839 5837 5835 5832 5829 5826 5824 5821 5818 5814 5811 5808
5862 5863 5865 5866 5867 5868 5869 5870 5871 5872 5873 5873 5874 5874 5875 5876 5877 5878 5878 5878 5879 5880 5880 5880 5880 5881 5881 5881 5880 5880 5880 5881 5881 5881 5881 5881 5881 5881 5881 5882 5884 5886 5886 5885 5884 5883 5881 5881 5880 5880 5880 5879 5878 5877 5876 5875 5873 5871 5870 5868 5866 5863 5860 5857 5855 5854 5852 5851 5848 5845 5843 5840 5837 5835 5833 5830 5827 5825 5822 5819 5816 5813 5809 5806 5803
5858 5860 5861 5862 5864 5865 5866 5866 5867 5868 5869 5869 5870 5870 5871 5872 5873 5874 5875 5875 5875 5876 5876 5877 5877 5877 5877 5877 5877 5877 5877 5876 5876 5875 5876 5875 5875 5875 5876 5877 5879 5881 5881 5881 5880 5879 5878 5877 5877 5876 5876 5875 5874 5873 5872 5871 5870 5867 5865 5864 5862 5859 5857 5854 5852 5850 5848 5846 5844 5841 5838 5836 5833 5831 5828 5825 5822 5820 5817 5814 5811 5807 5804 5801 5798
5856 5857 5858 5859 5861 5861 5861 5861 5863 5864 5864 5865 5866 5866 5867 5868 5869 5870 5871 5871 5871 5872 5872 5873 5873 5873 5873 5873 5873 5874 5873 5872 5871 5871 5871 5870 5869 5870 5871 5872 5874 5876 5876 5876 5875 5874 5874 5873 5873 5872 5872 5871 5870 5869 5869 5868 5866 5864 5862 5860 5858 5855 5853 5850 5848 5846 5844 5842 5839 5837 5834 5832 5830 5827 5824 5820 5818 5815 5812 5809 5806 5802 5799 5796 5793
5853 5855 5856 5857 5856 5855 5856 5857 5859 5860 5860 5861 5862 5862 5863 5863 5864 5864 5865 5866 5867 5867 5867 5867 5868 5868 5869 5869 5870 5870 5869 5868 5868 5867 5867 5866 5865 5865 5866 5866 5868 5870 5871 5871 5871 5870 5869 5869 5868 5868 5868 5867 5866 5865 5865 5864 5862 5860 5858 5856 5854 5852 5849 5846 5844 5842 5840 5838 5835 5833 5831 5828 5826 5823 5820 5816 5814 5811 5808 5805 5802 5798 5795 5791 5788
5850 5851 5852 5852 5850 5850 5852 5853 5854 5855 5856 5857 5858 5858 5859 5859 5859 5859 5860 5861 5862 5863 5862 5862 5863 5863 5864 5864 5865 5865 5865 5864 5864 5864 5864 5862 5861 5861 5861 5861 5862 5864 5865 5866 5866 5865 5864 5864 5864 5864 5863 5862 5861 5861 5860 5860 5858 5856 5854 5852 5850 5848 5845 5842 5840 5838 5836 5834 5831 5829 5827 5824 5822 5819 5816 5813 5810 5807 5804 5801 5797 5793 5790 5787 5784
5845 5846 5846 5846 5847 5848 5849 5849 5850 5852 5852 5852 5853 5854 5854 5855 5855 5855 5856 5857 5857 5857 5857 5858 5858 5858 5859 5859 5859 5859 5859 5859 5860 5860 5860 5858 5857 5857 5857 5857 5858 5859 5860 5860 5861 5861 5860 5859 5859 5859 5859 5857 5856 5856 5856 5855 5854 5852 5850 5848 5846 5844 5841 5838 5836 5834 5832 5829 5827 5825 5823 5820 5818 5815 5812 5809 5806 5803 5799 5796 5792 5789 5786 5782 5779
5841 5842 5842 5843 5844 5844 5845 5846 5847 5848 5848 5848 5848 5849 5850 5850 5850 5850 5851 5851 5851 5851 5851 5852 5852 5853 5853 5853 5852 5853 5853 5853 5854 5855 5855 5854 5853 5853 5853 5854 5854 5854 5854 5855 5856 5856 5855 5855 5855 5855 5854 5853 5852 5851 5851 5850 5849 5847 5845 5844 5841 5839 5837 5834 5832 5830 5827 5825 5823 5821 5819 5816 5814 5811 5808 5805 5802 5798 5795 5791 5788 5785 5782 5778 5775
5837 5838 5838 5839 5840 5840 5841 5842 5843 5844 5844 5844 5844 5844 5845 5845 5845 5845 5845 5845 5845 5845 5845 5845 5846 5846 5846 5846 5846 5847 5847 5847 5847 5848 5850 5849 5848 5848 5849 5850 5849 5848 5848 5850 5850 5851 5850 5850 5850 5850 5849 5848 5848 5847 5846 5845 5844 5842 5840 5839 5837 5835 5833 5830 5827 5825 5823 5821 5819 5817 5815 5812 5809 5807 5804 5801 5797 5794 5791 5788 5784 5781 5778 5775 5772
5832 5833 5834 5835 5836 5836 5836 5837 5838 5838 5839 5839 5839 5840 5839 5839 5839 5839 5840 5840 5840 5840 5839 5839 5839 5839 5839 5840 5840 5841 5841 5841 5840 5842 5843 5843 5842 5842 5843 5844 5843 5842 5842 5844 5845 5845 5845 5845 5845 5844 5844 5843 5843 5842 5840 5840 5839 5837 5835 5834 5832 5830 5828 5825 5823 5821 5819 5817 5815 5812 5810 5808 5805 5802 5800 5796 5793 5790 5787 5783 5780 5777 5774 5771 5769
5827 5828 5829 5830 5830 5831 5831 5831 5832 5833 5834 5834 5834 5835 5834 5833 5833 5833 5833 5833 5833 5833 5833 5833 5832 5832 5832 5832 5834 5835 5835 5835 5835 5836 5836 5836 5835 5835 5836 5837 5836 5835 5836 5838 5838 5839 5839 5839 5838 5838 5838 5837 5837 5836 5835 5834 5833 5831 5830 5829 5827 5825 5823 5821 5818 5816 5814 5812 5810 5808 5806 5804 5801 5798 5795 5792 5789 5786 5782 5779 5776 5773 5770 5768 5766
5821 5822 5823 5824 5825 5825 5826 5827 5827 5827 5828 5828 5828 5828 5828 5828 5827 5826 5826 5826 5825 5825 5825 5825 5824 5824 5824 5825 5827 5829 5829 5828 5828 5830 5830 5829 5827 5827 5827 5828 5828 5827 5829 5832 5832 5832 5833 5833 5832 5832 5832 5831 5831 5830 5829 5828 5827 5826 5824 5823 5822 5820 5818 5816 5814 5812 5810 5808 5806 5804 5802 5799 5797 5794 5791 5788 5785 5782 5778 5775 5772 5769 5767 5764 5762
5816 5817 5817 5818 5819 5819 5820 5821 5821 5821 5821 5821 5821 5821 5821 5821 5821 5820 5819 5818 5818 5818 5818 5817 5817 5817 5817 5818 5819 5820 5821 5820 5821 5822 5823 5821 5820 5818 5818 5818 5819 5820 5822 5824 5825 5826 5826 5826 5826 5826 5826 5825 5824 5824 5823 5823 5821 5820 5818 5817 5816 5815 5814 5812 5809 5808 5806 5804 5802 5799 5797 5795 5793 5790 5787 5783 5780 5777 5774 5771 5768 5766 5763 5761 5759
5810 5811 5812 5812 5813 5813 5814 5814 5814 5815 5815 5814 5814 5814 5814 5814 5813 5813 5812 5811 5811 5811 5811 5810 5810 5810 5810 5811 5810 5810 5811 5812 5814 5815 5815 5814 5814 5812 5810 5810 5811 5813 5814 5815 5817 5819 5819 5819 5820 5820 5819 5818 5818 5818 5818 5817 5816 5814 5812 5812 5811 5810 5809 5807 5805 5803 5801 5799 5797 5795 5793 5791 5788 5786 5783 5780 5776 5773 5770 5767 5765 5762 5760 5758 5755
5804 5805 5806 5806 5807 5807 5807 5807 5808 5808 5808 5808 5807 5807 5807 5806 5805 5805 5805 5804 5803 5803 5802 5802 5802 5803 5803 5802 5800 5800 5801 5803 5805 5807 5808 5808 5807 5805 5802 5802 5804 5806 5806 5808 5810 5809 5809 5811 5813 5813 5812 5811 5811 5812 5811 5811 5810 5809 5807 5806 5806 5805 5804 5802 5800 5799 5797 5795 5793 5791 5789 5787 5784 5782 5779 5776 5773 5769 5766 5764 5761 5759 5757 5755 5752
5797 5798 5799 5799 5800 5800 5801 5801 5801 5801 5801 5801 5800 5800 5799 5799 5798 5797 5797 5797 5796 5795 5793 5793 5794 5795 5794 5792 5791 5790 5790 5794 5797 5799 5799 5799 5797 5793 5791 5793 5796 5798 5799 5800 5800 5798 5799 5802 5805 5805 5804 5804 5804 5805 5805 5805 5804 5803 5801 5800 5801 5800 5798 5797 5795 5794 5792 5790 5789 5787 5785 5782 5780 5778 5775 5772 5769 5766 5763 5760 5757 5755 5753 5751 5749
5791 5792 5792 5793 5793 5794 5794 5794 5794 5794 5794 5794 5793 5793 5792 5791 5790 5789 5789 5789 5787 5786 5784 5783 5784 5785 5783 5782 5782 5782 5783 5786 5787 5786 5786 5788 5786 5783 5783 5784 5785 5787 5790 5791 5789 5788 5789 5792 5795 5796 5796 5797 5798 5798 5799 5798 5797 5796 5795 5795 5795 5795 5793 5791 5790 5788 5787 5786 5784 5782 5780 5778 5776 5773 5770 5767 5764 5761 5759 5756 5754 5752 5750 5748 5745
5785 5786 5786 5786 5787 5787 5787 5787 5787 5787 5786 5786 5786 5785 5785 5784 5783 5781 5781 5780 5779 5777 5774 5774 5774 5774 5771 5771 5773 5775 5776 5775 5774 5773 5775 5777 5776 5773 5773 5773 5774 5778 5781 5780 5778 5778 5780 5781 5784 5786 5788 5789 5791 5792 5792 5791 5790 5789 5789 5789 5790 5789 5787 5786 5784 5783 5782 5781 5779 5777 5775 5773 5771 5769 5766 5763 5760 5757 5754 5752 5750 5749 5747 5744 5742
5779 5779 5780 5780 5780 5780 5779 5779 5779 5778 5778 5777 5777 5776 5776 5776 5775 5773 5771 5770 5769 5767 5765 5763 5763 5763 5761 5761 5763 5765 5765 5764 5763 5764 5766 5767 5765 5762 5761 5762 5764 5769 5771 5769 5766 5768 5771 5772 5773 5775 5779 5783 5784 5785 5785 5784 5784 5783 5783 5784 5784 5783 5782 5780 5779 5778 5777 5776 5774 5772 5770 5769 5767 5764 5762 5759 5756 5753 5751 5748 5747 5745 5743 5741 5739
5772 5772 5772 5772 5772 5772 5772 5771 5771 5770 5770 5769 5768 5767 5767 5766 5766 5764 5763 5761 5758 5756 5755 5753 5752 5752 5751 5750 5751 5752 5752 5752 5753 5753 5754 5756 5755 5752 5750 5751 5753 5757 5759 5759 5760 5763 5767 5767 5763 5764 5770 5776 5778 5778 5778 5778 5777 5777 5777 5778 5778 5777 5776 5775 5773 5773 5772 5770 5769 5767 5766 5764 5762 5760 5757 5754 5751 5749 5747 5745 5743 5742 5740 5738 5736
5764 5764 5764 5764 5764 5763 5764 5763 5763 5762 5761 5760 5759 5759 5758 5757 5755 5754 5753 5752 5749 5746 5744 5742 5741 5740 5739 5738 5738 5737 5735 5736 5739 5741 5743 5744 5744 5743 5743 5743 5743 5745 5747 5750 5754 5759 5762 5761 5756 5756 5763 5769 5770 5771 5772 5771 5771 5772 5772 5772 5772 5771 5770 5769 5768 5767 5767 5765 5763 5762 5761 5759 5758 5755 5752 5750 5747 5745 5743 5741 5740 5738 5737 5735 5733
5756 5756 5756 5756 5755 5755 5755 5755 5755 5754 5753 5752 5751 5750 5749 5748 5746 5744 5743 5741 5739 5736 5735 5734 5732 5729 5726 5724 5722 5719 5717 5719 5722 5727 5731 5732 5730 5730 5732 5734 5735 5737 5740 5743 5748 5751 5752 5751 5749 5751 5757 5761 5763 5765 5766 5765 5765 5766 5766 5766 5766 5765 5764 5764 5763 5762 5761 5760 5758 5757 5756 5755 5753 5751 5748 5745 5743 5741 5739 5737 5736 5735 5733 5731 5730
5749 5749 5749 5748 5748 5748 5747 5747 5747 5746 5745 5744 5743 5742 5741 5740 5738 5736 5733 5730 5727 5725 5724 5725 5723 5719 5714 5708 5703 5698 5696 5698 5703 5708 5713 5716 5717 5717 5720 5723 5727 5731 5735 5737 5739 5742 5744 5745 5747 5750 5753 5755 5756 5758 5759 5759 5759 5760 5760 5760 5759 5758 5758 5758 5757 5756 5756 5754 5753 5752 5751 5750 5748 5746 5744 5741 5739 5737 5735 5733 5732 5731 5730 5728 5726
5741 5742 5741 5740 5740 5740 5740 5739 5739 5738 5737 5736 5735 5735 5734 5733 5730 5728 5724 5721 5716 5713 5712 5713 5712 5708 5701 5692 5684 5676 5670 5670 5678 5687 5692 5697 5701 5704 5709 5715 5720 5723 5727 5729 5730 5733 5737 5740 5742 5745 5746 5748 5750 5751 5753 5754 5754 5754 5753 5753 5753 5752 5752 5752 5751 5751 5750 5749 5748 5747 5746 5745 5744 5742 5740 5737 5735 5733 5731 5730 5729 5728 5727 5725 5724
5733 5733 5733 5733 5733 5732 5732 5732 5732 5731 5730 5729 5728 5728 5727 5725 5723 5720 5717 5713 5707 5701 5700 5699 5698 5695 5689 5677 5665 5655 5642 5634 5643 5660 5672 5680 5687 5693 5699 5707 5713 5715 5718 5721 5723 5727 5731 5733 5735 5738 5741 5742 5743 5745 5747 5748 5747 5747 5747 5747 5747 5746 5746 5746 5746 5746 5745 5744 5743 5742 5742 5741 5740 5738 5736 5733 5731 5729 5728 5727 5726 5725 5724 5723 5721
5724 5725 5725 5725 5725 5725 5725 5725 5725 5724 5723 5722 5721 5721 5720 5719 5717 5713 5709 5706 5700 5693 5690 5688 5685 5683 5677 5663 5647 5635 5623 5613 5619 5638 5655 5666 5676 5685 5691 5699 5705 5708 5711 5715 5719 5722 5726 5729 5731 5734 5736 5736 5737 5739 5741 5741 5741 5740 5740 5741 5741 5740 5740 5740 5741 5740 5740 5739 5738 5738 5737 5736 5735 5733 5732 5729 5727 5726 5724 5724 5723 5723 5721 5720 5718
5717 5718 5718 5718 5718 5718 5718 5718 5718 5717 5716 5715 5714 5714 5713 5712 5710 5707 5702 5699 5694 5688 5685 5684 5680 5675 5670 5661 5649 5640 5632 5624 5626 5639 5651 5661 5671 5680 5686 5691 5697 5701 5705 5709 5713 5717 5721 5724 5726 5728 5729 5730 5731 5733 5734 5734 5734 5734 5735 5735 5735 5735 5735 5735 5736 5735 5735 5734 5733 5733 5732 5732 5731 5729 5727 5725 5724 5722 5721 5720 5720 5720 5719 5717 5716
5710 5710 5710 5711 5711 5711 5711 5711 5711 5710 5710 5709 5708 5707 5707 5705 5704 5701 5696 5692 5689 5684 5681 5681 5679 5672 5666 5664 5665 5667 5663 5654 5649 5652 5658 5664 5671 5676 5680 5685 5691 5696 5700 5703 5707 5711 5715 5717 5720 5721 5722 5724 5725 5726 5727 5727 5728 5728 5729 5729 5729 5729 5730 5730 5730 5730 5730 5729 5728 5728 5728 5727 5726 5725 5723 5721 5720 5718 5718 5717 5717 5716 5715 5714 5713
5703 5703 5703 5703 5703 5703 5704 5704 5704 5703 5703 5703 5702 5701 5700 5699 5697 5695 5691 5687 5685 5682 5679 5678 5678 5672 5664 5662 5667 5674 5677 5673 5667 5665 5666 5667 5670 5673 5678 5683 5687 5691 5695 5698 5702 5706 5708 5710 5712 5714 5716 5718 5719 5720 5720 5721 5721 5722 5723 5723 5723 5724 5725 5725 5725 5725 5725 5724 5723 5723 5723 5722 5721 5720 5719 5717 5716 5715 5714 5714 5714 5713 5712 5711 5710
5696 5696 5696 5696 5696 5696 5697 5697 5697 5697 5696 5696 5695 5694 5694 5693 5691 5689 5687 5684 5682 5680 5678 5677 5676 5672 5666 5662 5662 5666 5670 5672 5671 5669 5668 5668 5670 5674 5679 5683 5686 5689 5691 5694 5696 5699 5702 5704 5706 5708 5710 5711 5712 5713 5713 5714 5715 5716 5717 5717 5718 5719 5719 5720 5720 5720 5719 5719 5718 5718 5718 5717 5716 5715 5714 5713 5712 5711 5711 5711 5711 5710 5709 5708 5707
5689 5689 5689 5689 5689 5690 5690 5690 5690 5690 5689 5689 5689 5688 5687 5687 5686 5684 5682 5681 5680 5679 5678 5677 5676 5673 5668 5665 5663 5664 5665 5667 5668 5668 5669 5671 5674 5677 5680 5682 5684 5685 5687 5688 5690 5693 5696 5698 5700 5702 5704 5704 5705 5706 5708 5709 5710 5711 5711 5712 5713 5714 5714 5714 5715 5715 5714 5713 5713 5713 5713 5712 5712 5711 5710 5709 5708 5708 5707 5707 5707 5707 5706 5705 5703
5684 5683 5683 5682 5682 5683 5684 5684 5683 5683 5682 5682 5682 5682 5682 5681 5681 5679 5677 5676 5676 5677 5676 5674 5674 5673 5671 5667 5665 5665 5665 5666 5667 5669 5670 5672 5675 5677 5678 5678 5678 5680 5681 5683 5686 5688 5691 5693 5695 5696 5697 5698 5700 5701 5702 5704 5705 5705 5706 5707 5708 5708 5708 5709 5709 5709 5709 5708 5708 5707 5707 5707 5706 5706 5705 5705 5704 5704 5704 5704 5704 5703 5702 5701 5700
5678 5677 5677 5677 5676 5677 5677 5677 5676 5676 5676 5676 5677 5677 5677 5676 5676 5674 5672 5671 5671 5672 5672 5670 5670 5670 5670 5668 5666 5665 5664 5665 5666 5667 5668 5670 5671 5672 5673 5673 5674 5676 5678 5680 5682 5684 5686 5688 5690 5691 5692 5694 5695 5696 5697 5698 5699 5700 5701 5702 5703 5703 5703 5703 5704 5704 5704 5703 5703 5702 5702 5702 5701 5701 5701 5700 5700 5700 5700 5700 5700 5699 5699 5698 5697
5672 5671 5671 5671 5671 5671 5671 5670 5670 5670 5670 5671 5672 5672 5672 5671 5670 5669 5668 5667 5666 5667 5667 5666 5665 5665 5665 5665 5665 5664 5663 5663 5663 5664 5664 5665 5666 5668 5670 5671 5672 5673 5674 5675 5678 5680 5682 5684 5685 5687 5688 5690 5691 5691 5692 5693 5694 5696 5697 5697 5697 5697 5697 5698 5698 5698 5698 5698 5697 5697 5697 5697 5696 5696 5696 5696 5696 5696 5696 5696 5696 5695 5695 5694 5693
5665 5665 5665 5665 5665 5665 5664 5664 5664 5664 5665 5666 5666 5667 5667 5666 5665 5664 5664 5662 5662 5663 5663 5662 5661 5660 5660 5661 5661 5661 5662 5662 5662 5662 5663 5664 5665 5666 5668 5668 5669 5669 5670 5671 5673 5676 5678 5679 5681 5682 5684 5684 5685 5686 5687 5688 5689 5690 5691 5692 5692 5692 5692 5692 5693 5693 5693 5692 5692 5692 5692 5691 5691 5691 5692 5692 5691 5691 5692 5692 5692 5692 5691 5691 5689
5659 5659 5659 5659 5659 5659 5658 5658 5658 5659 5660 5661 5661 5662 5662 5661 5659 5659 5659 5659 5658 5659 5659 5658 5657 5656 5656 5657 5658 5659 5659 5660 5660 5661 5662 5663 5663 5664 5664 5665 5665 5666 5667 5668 5669 5671 5673 5674 5675 5677 5678 5678 5679 5680 5681 5683 5684 5685 5685 5686 5686 5687 5687 5687 5687 5687 5687 5687 5687 5687 5686 5686 5686 5687 5687 5687 5687 5687 5687 5688 5688 5688 5687 5687 5686
5653 5654 5654 5653 5653 5653 5653 5653 5653 5653 5655 5656 5656 5656 5657 5656 5655 5655 5655 5655 5655 5655 5655 5654 5654 5653 5653 5653 5655 5656 5656 5657 5657 5658 5660 5660 5660 5660 5661 5661 5662 5663 5663 5664 5665 5666 5667 5668 5669 5670 5671 5672 5673 5674 5676 5677 5678 5679 5680 5680 5681 5681 5681 5681 5681 5681 5681 5681 5681 5681 5681 5681 5681 5682 5682 5682 5682 5682 5683 5683 5683 5684 5683 5683 5682
5648 5648 5648 5648 5648 5647 5647 5647 5648 5648 5649 5650 5651 5651 5651 5651 5650 5650 5650 5650 5650 5651 5651 5651 5651 5650 5650 5651 5652 5653 5653 5654 5654 5655 5655 5656 5656 5656 5656 5657 5658 5658 5659 5659 5660 5661 5662 5663 5664 5665 5666 5667 5668 5669 5670 5671 5672 5673 5674 5674 5675 5675 5676 5676 5675 5675 5675 5676 5676 5676 5676 5676 5676 5676 5677 5677 5677 5678 5678 5679 5679 5679 5679 5679 5678